Flag for Switzerland Weather past 2 weeks in Sarnen, Obwalden, Switzerland

Now
66 °F

Mild.


Feels Like: 66 °F
Forecast: 58 / 87 °F
Wind: 3 mph from Southwest

Location: Giswil

Current Time: Aug 3, 2015 at 12:50:52 AM

Latest Report: Aug 2, 2015 at 10:00 PM


Visibility: N/A

Pressure: 30.05 "Hg

Humidity: 81%

Dew point: 60 °F

Location of SarnenLocation

Historic Weather in Sarnen — Graph

°F

Sarnen temperature yesterday

Maximum temperature yesterday: 77 °F (at 6:00 PM)
Minimum temperature yesterday: 60 °F (at 3:00 AM)
Average temperature yesterday: 68 °F

Past Weeks' High & Low Weather Summary

 TemperatureHumidityPressure
High92 °F (Jul 22, 4:00 PM)100% (Jul 23, 1:00 AM)30.12 "Hg (Jul 23, 1:00 AM)
Low48 °F (Jul 31, 4:00 AM)38% (Jul 27, 7:00 PM)29.70 "Hg (Jul 24, 4:00 PM)
Average67 °F76%29.94 "Hg
* Reported Jul 18 10:00 PM — Aug 2 10:00 PM, Sarnen, Weather by CustomWeather, © 2015

Note: Actual official high and low records may vary slightly from our data, if they occured in-between our weather recording intervals... More about our weather records

Advertising

Sarnen weather history for previous 24 hours

 ConditionsComfort  
Time TempWeatherWind HumidityBarometerVisibility
10:00 PM
Sun, Aug 2
66 °FMild.3 mph81%30.05 "HgN/A
9:00 PM68 °FMild.3 mph76%30.03 "HgN/A
8:00 PM72 °FMild.2 mph76%30.01 "HgN/A
7:00 PM75 °FMild.1 mph66%30.00 "HgN/A
6:00 PM77 °FWarm.2 mph55%30.01 "HgN/A
5:00 PM75 °FMild.3 mph60%30.02 "HgN/A
4:00 PM74 °FMild.2 mph63%30.02 "HgN/A
3:00 PM74 °FMild.2 mph62%30.02 "HgN/A
2:00 PM72 °FMild.3 mph65%30.04 "HgN/A
1:00 PM72 °FMild.5 mph67%30.06 "HgN/A
12:00 PM69 °FMild.3 mph74%30.08 "HgN/A
11:00 AM67 °FMild.2 mph78%30.11 "HgN/A
10:00 AM65 °FMild.1 mph83%30.11 "HgN/A
9:00 AM62 °FMild.No wind92%30.12 "HgN/A
8:00 AM61 °FCool.1 mph94%30.11 "HgN/A
7:00 AM60 °FCool.1 mph99%30.10 "HgN/A
6:00 AM60 °FCool.1 mph99%30.10 "HgN/A
4:00 AM60 °FCool.1 mph99%30.08 "HgN/A
3:00 AM60 °FCool.1 mph99%30.08 "HgN/A
12:00 AM61 °FCool.1 mph99%30.08 "HgN/A
Weather by CustomWeather, © 2015

See weather overviewHow to use our weather pages